TITAN 3C TRANSTAGE DEB *, 38697

Orbit data source: Space-Track

TITAN 3C TRANSTAGE DEB *, 38697 is space debris in GEO originally from a launch on Thu, 26 Sep 1968 UTC launched from the Air Force Eastern Test Range (AFETR). Debris objects in space refer to the collection of defunct objects orbiting the Earth. Examples of debris include non-operational satellites, rocket bodies, and fragments generated from explosions, collisions, or faulty payload assembly.

Not visible in the next 10 days
Identifier
38697, 1968-081X
Orbit
GEO
Country
Flag of USUS
Related business
Manufacturer
Unknown
Mission
Spacecraft
Bus & Motor
Unknown
Mass
Unknown
Launch date (UTC)
1968-09-26 (57 years ago)
Launch vehicle
Unknown
Launch site
Air Force Eastern Test Range (AFETR)
Object type
Payload
Rocket body
Debris
Shape & HBR
Unknown shape, 1.1 m
Radar Cross Section
Small (<0.1 m²)

Expand to show TLE details & history
Last TLE update: 1 day ago

TLE from 1 day ago
0 TITAN 3C TRANSTAGE DEB *
1 38697U 68081X   25346.94293485 -.00000061  00000-0  00000-0 0  9998
2 38697   5.0505  42.1524 0231203 159.1366 201.6492  1.01479784 72970
Epoch: 2025-12-12T22:37Z
TLE epoch observation values (Epoch: 2025-12-12T22:37:49.571Z)
Latitude
-0°
Longitude
-19.34095°
Altitude
36,352.529 km
Speed
3.021 km/s
True Right ascension
02h 47m 58s
True Declination
0° 00' 00"
Sunlit
Object was in daylight at epoch
Visualization orbit readout
Latitude
Unknown
Longitude
Unknown
Altitude
Unknown
Speed
Unknown
Apparent Right ascension
Unknown
Apparent Declination
Unknown
Sunlit
N/A
Visualization observer readout
Local Sidereal Time
01:44:43
Azimuth
Unknown
Elevation
Unknown
Doppler factor
Unknown
Orbital elements
Apogee altitude
36,419.514 km
Perigee altitude
34,485.246 km
Semi-major axis
41,830.517 km
Eccentricity
0.02312
Inclination
5.0505°
RAAN
42.1524°
Arg. of periapsis
159.1366°
True anomaly
200.69742°
Mean anomaly
201.6492°
Eccentric anomaly
201.17079°
Mean motion
0.25369 °/min
Orbital period
1,419.05 mins
BSTAR
0
Loading maneuver chart data...
Computing Atmospheric mass density...

Documentation

Showing up to 5 results
|